Volver al catálogo

NOAA 16 DEB

ActivoSSO
NORAD 41357·DEBRIS·🇺🇸 United States

Lanzado Sep 21, 2000 desde Vandenberg Space Force Base

Loading…

Próximos Pases (próximas 24 horas)

TLE

ActualizadoSource: Space-Track

Época: Sep 14, 2026, 04:40 UTC

1 41357U 00055JA  26257.19503806  .00001443  00000-0  86688-3 0  9995
2 41357  98.8582 244.0098 0069410 176.4682 183.6991 14.07250775542469

Sigue NOAA 16 DEB en tiempo real con AllMySat

Download on the App Store